This is the latest recevied weather packets stored in our database for station/object KC9Q. If no packets are shown the sender has not sent any weather packets the latest 10 day(s).
| Time | Temp. | Humidity | Pressure | Rain* | Wind** | Luminosity | Snow |
|---|---|---|---|---|---|---|---|
| 1777996074 | 16.11° C | 95% | 1008.3 hPa | 3.56 mm | - | 42 W/m² | - |
| 1777995771 | 16.67° C | 94% | 1008 hPa | 0.51 mm | - | 56 W/m² | - |
| 1777995467 | 16.67° C | 94% | 1008.1 hPa | 0 mm | - | 51 W/m² | - |
| 1777995164 | 16.67° C | 94% | 1008 hPa | 0 mm | - | 47 W/m² | - |
| 1777994862 | 16.67° C | 94% | 1008.1 hPa | 0 mm | - | 52 W/m² | - |
| 1777994558 | 16.67° C | 94% | 1008 hPa | 0 mm | - | 37 W/m² | - |
| 1777994258 | 16.67° C | 94% | 1008.3 hPa | 0 mm | - | 84 W/m² | - |
| 1777993955 | 16.67° C | 95% | 1008.5 hPa | 0 mm | - | 98 W/m² | - |
| 1777993652 | 16.67° C | 95% | 1008.4 hPa | 0 mm | - | 156 W/m² | - |
| 1777993349 | 16.11° C | 95% | 1008.4 hPa | 0 mm | - | 116 W/m² | - |
| 1777993044 | 16.11° C | 95% | 1008.6 hPa | 0 mm | - | 87 W/m² | - |
| 1777992743 | 16.11° C | 96% | 1008.1 hPa | 0 mm | - | 90 W/m² | - |
| 1777992440 | 16.11° C | 96% | 1008.1 hPa | 0 mm | - | 96 W/m² | - |
| 1777992138 | 16.11° C | 96% | 1007.9 hPa | 0 mm | - | 88 W/m² | - |
| 1777991835 | 16.11° C | 96% | 1008 hPa | 0 mm | - | 111 W/m² | - |
| 1777991532 | 16.11° C | 96% | 1008.1 hPa | 0 mm | - | 84 W/m² | - |
| 1777991229 | 16.11° C | 96% | 1008.3 hPa | 0 mm | - | 60 W/m² | - |
| 1777990926 | 16.11° C | 96% | 1008.4 hPa | 0 mm | - | 68 W/m² | - |
| 1777990624 | 16.11° C | 96% | 1008 hPa | 0 mm | - | 60 W/m² | - |
| 1777990016 | 16.11° C | 96% | 1007.6 hPa | 0 mm | - | 133 W/m² | - |
| 1777989714 | 16.11° C | 96% | 1007.8 hPa | 0 mm | - | 88 W/m² | - |
| 1777989410 | 16.11° C | 96% | 1008 hPa | 0.51 mm | - | 86 W/m² | - |
| 1777989107 | 15.56° C | 96% | 1007.7 hPa | 0.51 mm | - | 141 W/m² | - |
| 1777988802 | 15.56° C | 95% | 1007.8 hPa | 0.51 mm | - | 87 W/m² | - |
| 1777988500 | 15.56° C | 95% | 1007.9 hPa | 0.51 mm | - | 50 W/m² | - |
* Rain latest hour (hover to see other rain measurements)
** Current wind speed in m/s (hover to see current wind gust speed)